Location: Bannatyne
(13.0833°N, 59.5333°W)
Time: 17:18:54
(UTC+00:00)

deb Explorer IX - Pass Details

Date: 26 January 2020
Orbit: 549 x 1099 km, 38.8° (Epoch: 21 February)

Event Time Altitude Azimuth Distance (km) Brightness Sun altitude
Rises 07:40:31 0° 316° (NW) 3,816 - -39.4°
Reaches altitude 10° 07:43:29 10° 322° (NW) 2,806 - -38.7°
Maximum altitude 07:50:00 48° 35° (NE) 1,198 - -37.1°
Exits shadow 07:51:49 38° 79° (E) 1,359 ? -36.7°
Drops below altitude 10° 07:55:42 10° 109° (ESE) 2,453 ? -35.8°
Sets 07:58:07 0° 114° (ESE) 3,299 ? -35.2°
